Regional Weather Roundup
Issued by NWS

Home | Current Version | Previous Version | Graphics & Text | Print | Product List | Glossary On
Versions: 1 2 3 4 5 6 7 8 9 10 11 12 13 14 15 16 17 18 19 20 21 22 23 24 25 26 27 28 29 30 31 32 33 34 35 36 37 38 39 40 41 42 43 44 45 46 47 48 49 50
362
ASUS43 KTOP 231159
RWRKS

WEATHER ROUNDUP FOR KANSAS
NATIONAL WEATHER SERVICE GOODLAND KS
700 AM CDT WED AUG 23 2017

NOTE:  "FAIR" INDICATES FEW OR NO CLOUDS BELOW 12,000 FEET WITH NO
SIGNIFICANT WEATHER AND/OR OBSTRUCTIONS TO VISIBILITY.

KSZ001>006-013>018-027>032-041>047-231300-
NORTHWEST KANSAS

CITY           SKY/WX    TMP DP  RH WIND       PRES   REMARKS
GOODLAND       CLEAR     54  48  80 S14       30.20S
6HR MIN TEMP:  53; 6HR MAX TEMP:  58;

HAYS           CLEAR     54  49  83 CALM      30.20R
HILL CITY      CLEAR     52  49  89 CALM      30.20R
6HR MIN TEMP:  52; 6HR MAX TEMP:  59;

RUSSELL        CLEAR     53  48  83 S8        30.18R
6HR MIN TEMP:  53; 6HR MAX TEMP:  61;

$$

KSZ061>065-074>080-084>089-231300-
SOUTHWEST KANSAS

CITY           SKY/WX    TMP DP  RH WIND       PRES   REMARKS
DODGE CITY       N/A     52  47  83 SE7       30.20S
ELKHART          N/A     63  64 100 SE8         N/A
GARDEN CITY    CLEAR     55  49  80 SE6       30.21R
6HR MIN TEMP:  54; 6HR MAX TEMP:  61;

LIBERAL        CLEAR     60  52  74 E5        30.22R
$$

KSZ066>073-081>083-090>101-231300-
SOUTHEAST KANSAS

CITY           SKY/WX    TMP DP  RH WIND       PRES   REMARKS
CHANUTE        CLEAR     60  54  80 NE7       30.16R
6HR MIN TEMP:  59; 6HR MAX TEMP:  65;

COFFEYVILLE    CLEAR     59  56  89 N5        30.13R
6HR MIN TEMP:  59; 6HR MAX TEMP:  68;

HUTCHINSON     CLEAR     54  51  90 CALM      30.18R
6HR MIN TEMP:  53; 6HR MAX TEMP:  65;

MEDICINE LODGE   N/A     58  52  80 CALM      30.17S
NEWTON         CLEAR     57  52  83 E5        30.19R
PARSONS        CLEAR     59  54  83 CALM      30.15R
6HR MIN TEMP:  58; 6HR MAX TEMP:  67;

WICHITA INTL   PTCLDY    60  54  80 NE7       30.16S
6HR MIN TEMP:  60; 6HR MAX TEMP:  67;

WICHITA JABRA  CLEAR     55  54  96 N7        30.17R
6HR MIN TEMP:  54; 6HR MAX TEMP:  62;

WINFIELD       CLEAR     60  53  77 NE6       30.16R
6HR MIN TEMP:  60; 6HR MAX TEMP:  68;

$$

KSZ007>012-019>026-033>040-048>060-102>105-231300-
NORTHEAST KANSAS

CITY           SKY/WX    TMP DP  RH WIND       PRES   REMARKS
CONCORDIA      CLEAR     53  51  93 CALM      30.18S
6HR MIN TEMP:  53; 6HR MAX TEMP:  60;

EMPORIA        CLEAR     54  53  97 CALM      30.17S
6HR MIN TEMP:  54; 6HR MAX TEMP:  60;

LAWRENCE       CLEAR     54  54 100 CALM      30.17R
6HR MIN TEMP:  53; 6HR MAX TEMP:  59;

MANHATTAN      CLEAR     52  52 100 CALM      30.17S
6HR MIN TEMP:  50; 6HR MAX TEMP:  57;

OLATHE IND     CLEAR     57  54  89 CALM      30.17S
6HR MIN TEMP:  55; 6HR MAX TEMP:  59;

OLATHE EXE     CLEAR     57  53  86 NE3       30.16S
6HR MIN TEMP:  54; 6HR MAX TEMP:  63;

SALINA         CLEAR     56  50  80 CALM      30.18F
6HR MIN TEMP:  55; 6HR MAX TEMP:  68;

TOPEKA BILLARD CLEAR     55  55 100 CALM      30.17S
6HR MIN TEMP:  54; 6HR MAX TEMP:  60;

TOPEKA FORBES  CLEAR     54  53  97 CALM      30.17S
6HR MIN TEMP:  54; 6HR MAX TEMP:  60;

$$




USA.gov is the U.S. government's official web portal to all federal, state and local government web resources and services.